[[{"header":{"parameterUnit":"m.s-1","parameterCategory":1,"la1":30.2992,"la2":30.254,"lo1":-89.0895,"lo2":-89.0443,"dy":0.0025,"dx":0.0025,"nx":19,"ny":19,"refTime":"2026-03-16T21:00:00:Z","depth":0,"parameterNumber":2,"parameterNumberName":"U-component_of_WINDS"},"data":[0,0,0,0.4511,0.4511,0.4512,0.4512,0.4515,0.4515,0,0,0,0,0,0,0,0,0,0,0,0.4511,0.4511,0.4511,0.4511,0.4512,0.4512,0.4515,0.4515,0,0,0,0,0,0,0,0,0,0,0,0.4511,0.4511,0.4511,0.4511,0.4512,0.4512,0.4515,0.4513,0,0,0,0,0,0,0,0,0,0,0.4512,0.4512,0.4511,0.4511,0.4511,0.4512,0.4512,0.4513,0.4514,0.4515,0,0.4515,0,0.4515,0.4515,0.4515,0,0,0,0.451,0.4512,0.4512,0.4511,0.4511,0.4512,0.4511,0.4513,0.4514,0.4515,0.4515,0.4516,0.4515,0.4515,0.4515,0.4522,0.4522,0,0,0.451,0.4511,0.4512,0.4512,0.4512,0.4511,0.4511,0.4514,0.4514,0.4515,0.4516,0.4515,0.4515,0.4515,0.4522,0.4522,0,0,0,0.451,0.4511,0.4511,0.4512,0.4512,0.4511,0.4512,0.4514,0.4514,0.4516,0.4515,0.4515,0.4515,0.4522,0.4522,0.4525,0,0,0,0.451,0.4511,0.4511,0.4512,0.4512,0.4513,0.4512,0.4514,0.4514,0.4515,0.4515,0.4515,0.4522,0.4522,0.4525,0.4526,0,0,0,0.4511,0.4511,0.4511,0.4512,0.4512,0.4513,0.4513,0.4514,0.4514,0.4515,0.4515,0.4522,0.4522,0.4525,0.4526,0.4529,0,0,0,0.4511,0.4514,0.4511,0.4515,0.4512,0.4515,0.4513,0.4516,0.4517,0.4515,0.4522,0.4522,0.4525,0.4526,0.4528,0.4531,0.4532,0,0,0.4515,0.4514,0.4516,0.4514,0.4518,0.4515,0.4519,0.452,0.4519,0.4521,0.4522,0.4525,0.4526,0.4529,0.4538,0.4539,0,0,0,0.4518,0.4519,0.452,0.4521,0.4522,0.4523,0.4523,0.4523,0.4525,0.452,0.4527,0.4527,0.4529,0.453,0.4531,0.4532,0.4523,0.4523,0.4523,0.4524,0.4524,0.4527,0.4527,0.4528,0.4529,0.453,0.453,0.4529,0.4531,0.4531,0.4537,0.4538,0.4539,0.454,0.4533,0.4533,0.4533,0.4533,0.453,0.4532,0.4531,0.4534,0.4534,0.4536,0.4537,0.4536,0.4539,0.4536,0.4538,0.4535,0.454,0.4541,0.4533,0.4533,0.4533,0.4533,0.4533,0.4533,0.4534,0.4535,0.4538,0.454,0.454,0.4543,0.4542,0.4542,0.4543,0.4544,0.4544,0.4544,0.4544,0.4544,0.4544,0.4544,0.4544,0.4544,0.4537,0.4538,0.454,0.4541,0.4543,0.4544,0.4546,0.4547,0.4548,0.4548,0.4548,0.4547,0.454,0.4538,0.4544,0.4544,0.4544,0.4544,0.4544,0.4542,0.4541,0.4544,0.4546,0.4548,0.4551,0.4551,0.4554,0.4555,0.4556,0.4555,0.4551,0.455,0.4549,0.4548,0.4555,0.4555,0.4555,0.4555,0.4545,0.4545,0.4548,0.4551,0.4553,0.4554,0.4558,0.4559,0.4561,0.4562,0.4561,0.4559,0.4558,0.4558,0.4557,0.4555,0.4565,0.4565,0.4565,0.4548,0.4548,0.4551,0.4553,0.4555,0.4557,0.4561,0.4564,0.4566,0.4565,0.4562,0.4562,0.4559,0.4558,0.4556,0.4555,0.4553,0,0]},{"header":{"parameterUnit":"m.s-1","parameterCategory":1,"la1":30.2992,"la2":30.254,"lo1":-89.0895,"lo2":-89.0443,"dy":0.0025,"dx":0.0025,"nx":19,"ny":19,"refTime":"2026-03-16T21:00:00:Z","depth":0,"parameterNumber":3,"parameterNumberName":"V-component_of_WINDS"},"data":[0,0,0,-3.8418,-3.8421,-3.8564,-3.8565,-3.8749,-3.875,0,0,0,0,0,0,0,0,0,0,0,-3.8377,-3.8378,-3.8417,-3.8421,-3.8564,-3.8565,-3.8748,-3.875,0,0,0,0,0,0,0,0,0,0,0,-3.8376,-3.8378,-3.8379,-3.8422,-3.8564,-3.8565,-3.8748,-3.8639,0,0,0,0,0,0,0,0,0,0,-3.85,-3.8464,-3.8377,-3.8379,-3.8422,-3.8564,-3.8565,-3.8634,-3.8646,-3.8684,0,-3.872,0,-3.8738,-3.8763,-3.8763,0,0,0,-3.8419,-3.8454,-3.8491,-3.838,-3.8424,-3.8564,-3.8499,-3.8641,-3.8654,-3.87,-3.8723,-3.8729,-3.8741,-3.8764,-3.8765,-3.8994,-3.8995,0,0,-3.8411,-3.8403,-3.8482,-3.85,-3.848,-3.8495,-3.8504,-3.8649,-3.8672,-3.8723,-3.8734,-3.8744,-3.8765,-3.8767,-3.8993,-3.8994,0,0,0,-3.839,-3.8398,-3.8431,-3.8493,-3.8519,-3.8499,-3.8509,-3.8666,-3.8677,-3.8736,-3.8746,-3.8766,-3.8769,-3.8991,-3.8993,-3.9041,0,0,0,-3.8385,-3.8385,-3.8428,-3.8424,-3.8516,-3.8594,-3.8523,-3.8667,-3.8684,-3.8746,-3.8766,-3.877,-3.899,-3.8992,-3.9037,-3.9065,0,0,0,-3.8367,-3.8383,-3.8404,-3.8424,-3.8485,-3.8592,-3.8612,-3.8671,-3.8691,-3.8764,-3.8771,-3.8989,-3.8992,-3.9034,-3.9059,-3.9122,0,0,0,-3.8345,-3.8445,-3.8405,-3.8522,-3.8484,-3.8622,-3.8611,-3.8714,-3.8782,-3.8767,-3.899,-3.8993,-3.9033,-3.9056,-3.9118,-3.9173,-3.9195,0,0,-3.8467,-3.846,-3.8529,-3.8497,-3.864,-3.86,-3.875,-3.882,-3.8834,-3.8939,-3.8945,-3.9039,-3.9059,-3.9121,-3.9325,-3.9343,0,0,0,-3.8565,-3.8614,-3.8654,-3.8719,-3.8775,-3.8825,-3.8873,-3.8899,-3.8989,-3.8887,-3.9079,-3.9091,-3.9128,-3.9155,-3.917,-3.9201,-3.9005,-3.9005,-3.9005,-3.8725,-3.8738,-3.8853,-3.8883,-3.8947,-3.8995,-3.9047,-3.909,-3.9084,-3.9129,-3.916,-3.9283,-3.9313,-3.9325,-3.9357,-3.9191,-3.9191,-3.9192,-3.9192,-3.8904,-3.8975,-3.8966,-3.9074,-3.9087,-3.9178,-3.9228,-3.9221,-3.9306,-3.926,-3.9294,-3.9242,-3.9344,-3.9373,-3.9195,-3.9195,-3.9194,-3.9194,-3.9194,-3.9009,-3.9046,-3.9076,-3.9171,-3.9243,-3.927,-3.9352,-3.9361,-3.937,-3.9403,-3.9435,-3.9435,-3.9434,-3.9418,-3.9418,-3.9419,-3.9419,-3.9419,-3.942,-3.9106,-3.9139,-3.9208,-3.9276,-3.9319,-3.9376,-3.9425,-3.9467,-3.9515,-3.9515,-3.9515,-3.9504,-3.9352,-3.9312,-3.9426,-3.9425,-3.9424,-3.9424,-3.9423,-3.928,-3.9242,-3.9349,-3.9391,-3.9472,-3.9542,-3.9552,-3.9636,-3.9672,-3.9712,-3.9695,-3.9581,-3.9574,-3.9562,-3.9529,-3.9692,-3.9692,-3.9692,-3.9692,-3.9368,-3.9366,-3.9476,-3.9544,-3.9611,-3.9631,-3.9749,-3.9789,-3.9823,-3.9846,-3.9823,-3.9781,-3.9769,-3.9769,-3.9753,-3.9722,-3.9931,-3.9931,-3.9932,-3.9475,-3.948,-3.9579,-3.9614,-3.9677,-3.9731,-3.9842,-3.9918,-3.995,-3.9941,-3.9863,-3.9853,-3.9785,-3.9763,-3.9751,-3.9726,-3.967,0,0]}]]